{"data":{"norad_id":57454,"epoch":"2026-05-25T04:53:46.825152Z","epoch_age_seconds":57712,"freshness":"FRESH","line1":"1 57454U 23106C   26145.20401418  .00005641  00000+0  27116-3 0  9990","line2":"2 57454  34.9944 223.8932 0016117 266.6265  93.2604 15.18061940157370","mean_motion":15.1806194,"eccentricity":0.0016117,"inclination_deg":34.9944,"raan_deg":223.8932,"arg_perigee_deg":266.6265,"mean_anomaly_deg":93.2604,"bstar":0.00027116,"rev_number":15737,"period_min":94.857789531302,"perigee_km":500.59405268835,"apogee_km":522.80274811801,"semimajor_km":6889.8354004032,"source":"CELESTRAK","updated_at":"2026-05-25T13:38:00.073500Z"}}